When you browse on this site, cookies collect data to enhance your experience and personalize the content and advertising you see.
Visit our Privacy Policy to learn more. By continuing to use the site, you agree to this use of cookies and data.
  • In Hungary
  • List of Countries
  • For 7 days
  • Water Temperature
  • Weather Map
  • News
  • Weather Widgets
  • user-avatar
    Login

    Hourly Weather Brukalice

    Today, 13 November, Wednesday

    Time Temperature Precipitation Wind Pressure Humidity
    00:00 +7°C° 1 mm 1 mps 735 mmHg 98%
    01:00 +7°C° 1 mm 1 mps 735 mmHg 98%
    02:00 +7°C° 0.2 mm 1 mps 734 mmHg 98%
    03:00 +7°C° 0.2 mm 1 mps 734 mmHg 98%
    04:00 +7°C° 0.2 mm 1 mps 734 mmHg 98%
    05:00 +8°C° 0 mm 1 mps 734 mmHg 98%
    06:00 +8°C° 0 mm 1 mps 733 mmHg 98%
    07:00 +8°C° 0 mm 1 mps 733 mmHg 97%
    08:00 +8°C° 0.2 mm 1 mps 733 mmHg 97%
    09:00 +8°C° 0.2 mm 1 mps 733 mmHg 96%
    10:00 +8°C° 0.2 mm 1 mps 732 mmHg 96%
    11:00 +7°C° 1.2 mm 2 mps 732 mmHg 96%
    12:00 +7°C° 1.2 mm 2 mps 732 mmHg 96%
    13:00 +3°C° 0 mm 3 mps 733 mmHg 88%
    14:00 +3°C° 0.5 mm 3 mps 733 mmHg 90%
    15:00 +3°C° 0.5 mm 3 mps 733 mmHg 92%
    16:00 +3°C° 0.5 mm 3 mps 733 mmHg 94%
    17:00 +3°C° 2.1 mm 3 mps 733 mmHg 95%
    18:00 +3°C° 2.1 mm 3 mps 734 mmHg 95%
    19:00 +3°C° 2.1 mm 3 mps 734 mmHg 96%
    20:00 +3°C° 0.9 mm 3 mps 734 mmHg 96%
    21:00 +3°C° 0.9 mm 3 mps 735 mmHg 96%
    22:00 +3°C° 0.9 mm 3 mps 735 mmHg 95%
    23:00 +3°C° 0.6 mm 3 mps 736 mmHg 95%

    Tomorrow, 14 November, Thursday

    Time Temperature Precipitation Wind Pressure Humidity
    00:00 +3°C° 0.6 mm 3 mps 737 mmHg 95%
    01:00 +3°C° 0.6 mm 4 mps 737 mmHg 95%
    02:00 +2°C° 0 mm 3 mps 737 mmHg 93%
    03:00 +3°C° 0 mm 2 mps 738 mmHg 90%
    04:00 +3°C° 0 mm 2 mps 738 mmHg 88%
    05:00 +3°C° 0 mm 2 mps 738 mmHg 88%
    06:00 +2°C° 0 mm 2 mps 739 mmHg 88%
    07:00 +3°C° 0 mm 1 mps 739 mmHg 88%
    08:00 +4°C° 0 mm 1 mps 740 mmHg 84%
    09:00 +4°C° 0 mm 2 mps 740 mmHg 80%
    10:00 +5°C° 0 mm 2 mps 740 mmHg 76%
    11:00 +6°C° 0 mm 2 mps 740 mmHg 74%
    12:00 +7°C° 0 mm 2 mps 740 mmHg 71%
    13:00 +8°C° 0 mm 3 mps 740 mmHg 69%
    14:00 +7°C° 0 mm 3 mps 740 mmHg 73%
    15:00 +5°C° 0 mm 3 mps 740 mmHg 78%
    16:00 +4°C° 0 mm 3 mps 740 mmHg 82%
    17:00 +5°C° 0 mm 2 mps 740 mmHg 85%
    18:00 +4°C° 0 mm 2 mps 740 mmHg 87%
    19:00 +4°C° 0 mm 2 mps 740 mmHg 90%
    20:00 +4°C° 0 mm 2 mps 739 mmHg 91%
    21:00 +3°C° 0 mm 3 mps 739 mmHg 92%
    22:00 +3°C° 0 mm 3 mps 739 mmHg 93%
    23:00 +3°C° 0 mm 3 mps 739 mmHg 93%

    Day after tomorrow, 15 November, Friday

    Time Temperature Precipitation Wind Pressure Humidity
    00:00 +4°C° 0 mm 3 mps 739 mmHg 93%
    01:00 +4°C° 0 mm 4 mps 738 mmHg 93%
    02:00 +4°C° 0 mm 4 mps 738 mmHg 91%
    03:00 +4°C° 0 mm 4 mps 738 mmHg 90%
    04:00 +5°C° 0 mm 4 mps 737 mmHg 88%
    05:00 +5°C° 0 mm 4 mps 737 mmHg 87%
    06:00 +5°C° 0 mm 5 mps 737 mmHg 87%
    07:00 +6°C° 0 mm 5 mps 737 mmHg 86%
    08:00 +7°C° 0 mm 5 mps 738 mmHg 83%
    09:00 +9°C° 0 mm 5 mps 738 mmHg 80%
    10:00 +10°C° 0 mm 5 mps 738 mmHg 77%
    11:00 +11°C° 0 mm 6 mps 738 mmHg 74%
    12:00 +13°C° 0 mm 6 mps 737 mmHg 72%
    13:00 +14°C° 0 mm 6 mps 737 mmHg 69%
    14:00 +13°C° 0 mm 5 mps 737 mmHg 72%
    15:00 +12°C° 0 mm 5 mps 737 mmHg 75%
    16:00 +10°C° 0 mm 5 mps 737 mmHg 78%
    17:00 +10°C° 0 mm 5 mps 737 mmHg 79%
    18:00 +10°C° 0 mm 5 mps 737 mmHg 80%
    19:00 +10°C° 0 mm 5 mps 737 mmHg 80%
    20:00 +10°C° 0 mm 5 mps 737 mmHg 81%
    21:00 +11°C° 0 mm 4 mps 737 mmHg 82%
    22:00 +10°C° 0 mm 4 mps 737 mmHg 82%
    23:00 +10°C° 0 mm 4 mps 737 mmHg 83%

    16 November, Saturday

    Time Temperature Precipitation Wind Pressure Humidity
    00:00 +10°C° 0 mm 4 mps 738 mmHg 83%
    01:00 +10°C° 0 mm 4 mps 738 mmHg 83%
    02:00 +10°C° 0 mm 4 mps 737 mmHg 83%
    03:00 +10°C° 0 mm 4 mps 736 mmHg 82%
    04:00 +9°C° 0 mm 5 mps 736 mmHg 82%
    05:00 +10°C° 0.1 mm 6 mps 736 mmHg 81%
    06:00 +10°C° 0.1 mm 7 mps 736 mmHg 80%
    07:00 +11°C° 0.1 mm 8 mps 736 mmHg 79%
    08:00 +11°C° 0 mm 7 mps 736 mmHg 77%
    09:00 +11°C° 0 mm 6 mps 737 mmHg 75%
    10:00 +13°C° 0 mm 5 mps 737 mmHg 74%
    11:00 +13°C° 0 mm 6 mps 737 mmHg 70%
    12:00 +14°C° 0 mm 6 mps 737 mmHg 67%
    13:00 +14°C° 0 mm 6 mps 737 mmHg 63%
    14:00 +13°C° 0 mm 6 mps 738 mmHg 66%
    15:00 +12°C° 0 mm 5 mps 738 mmHg 69%
    16:00 +10°C° 0 mm 4 mps 739 mmHg 73%
    17:00 +9°C° 0 mm 3 mps 740 mmHg 75%
    18:00 +8°C° 0 mm 3 mps 741 mmHg 78%
    19:00 +7°C° 0 mm 2 mps 741 mmHg 80%
    20:00 +7°C° 0 mm 2 mps 742 mmHg 81%
    21:00 +7°C° 0 mm 2 mps 742 mmHg 82%
    22:00 +6°C° 0 mm 2 mps 743 mmHg 83%
    23:00 +7°C° 0 mm 1 mps 743 mmHg 85%

    17 November, Sunday

    Time Temperature Precipitation Wind Pressure Humidity
    00:00 +7°C° 0 mm 1 mps 743 mmHg 87%
    01:00 +7°C° 0 mm 1 mps 743 mmHg 88%
    02:00 +7°C° 0 mm 1 mps 743 mmHg 89%
    03:00 +7°C° 0 mm 1 mps 743 mmHg 89%
    04:00 +5°C° 0 mm 0 mps 743 mmHg 89%
    05:00 +6°C° 0 mm 0 mps 743 mmHg 88%
    06:00 +6°C° 0 mm 0 mps 743 mmHg 87%
    07:00 +6°C° 0 mm 0 mps 743 mmHg 87%
    08:00 +8°C° 0 mm 1 mps 743 mmHg 84%
    09:00 +9°C° 0 mm 1 mps 743 mmHg 82%
    10:00 +10°C° 0 mm 1 mps 743 mmHg 80%
    11:00 +11°C° 0 mm 1 mps 742 mmHg 78%
    12:00 +12°C° 0 mm 2 mps 742 mmHg 77%
    13:00 +13°C° 0 mm 2 mps 741 mmHg 75%
    14:00 +12°C° 0 mm 2 mps 741 mmHg 79%
    15:00 +10°C° 0 mm 2 mps 741 mmHg 83%
    16:00 +9°C° 0 mm 2 mps 740 mmHg 87%
    17:00 +9°C° 0 mm 2 mps 740 mmHg 87%
    18:00 +9°C° 0 mm 2 mps 740 mmHg 87%
    19:00 +9°C° 0 mm 2 mps 739 mmHg 87%
    20:00 +9°C° 0 mm 2 mps 739 mmHg 87%
    21:00 +9°C° 0 mm 2 mps 739 mmHg 86%
    22:00 +9°C° 0 mm 2 mps 739 mmHg 86%
    23:00 +9°C° 0 mm 2 mps 738 mmHg 85%

    18 November, Monday

    Time Temperature Precipitation Wind Pressure Humidity
    00:00 +9°C° 0 mm 2 mps 737 mmHg 84%
    01:00 +9°C° 0 mm 2 mps 737 mmHg 84%
    02:00 +9°C° 0 mm 2 mps 736 mmHg 82%
    03:00 +9°C° 0 mm 3 mps 736 mmHg 80%
    04:00 +9°C° 0 mm 3 mps 735 mmHg 78%
    05:00 +9°C° 0 mm 3 mps 735 mmHg 79%
    06:00 +9°C° 0 mm 3 mps 735 mmHg 79%
    07:00 +9°C° 0 mm 3 mps 735 mmHg 80%
    08:00 +10°C° 0 mm 4 mps 735 mmHg 78%
    09:00 +11°C° 0 mm 4 mps 735 mmHg 76%
    10:00 +12°C° 0 mm 4 mps 736 mmHg 73%
    11:00 +12°C° 0 mm 5 mps 736 mmHg 66%
    12:00 +13°C° 0 mm 5 mps 736 mmHg 59%
    13:00 +13°C° 0 mm 6 mps 736 mmHg 52%
    14:00 +12°C° 0 mm 5 mps 736 mmHg 57%
    15:00 +11°C° 0 mm 4 mps 736 mmHg 62%
    16:00 +10°C° 0 mm 3 mps 736 mmHg 67%
    17:00 +10°C° 0 mm 3 mps 737 mmHg 70%
    18:00 +9°C° 0 mm 3 mps 737 mmHg 73%
    19:00 +9°C° 0 mm 3 mps 737 mmHg 76%
    20:00 +9°C° 0 mm 3 mps 738 mmHg 78%
    21:00 +8°C° 0 mm 3 mps 739 mmHg 79%
    22:00 +8°C° 0 mm 3 mps 739 mmHg 80%
    23:00 +7°C° 0 mm 3 mps 739 mmHg 81%
    Show more